Simultaneous Nadir Overpasses (SNOs) Predictions

Prediction of SNOs between GOES-15 and NOAA-20 Satellite Orbit:

Table of predicted SNOs for the next 14.0 days since TLE Epoch: 11/23/2024
Index Date Time (GOES-15) GOES-15 Lat,Lon NOAA-20 Lat,Lon Distance(km) Time Diff (sec)
1 11/23/2024 21:10:00 0.04, 61.62 -0.25, 63.01 157.82 80
2 11/25/2024 09:31:55 -0.02, 61.65 -0.90, 57.70 449.83 80
3 11/26/2024 09:15:49 -0.03, 61.63 0.09, 62.24 69.39 80
4 11/28/2024 21:18:49 0.02, 61.54 0.00, 61.51 4.67 80
5 12/01/2024 09:19:17 -0.02, 61.59 -0.19, 60.75 95.23 80
6 12/02/2024 09:03:10 -0.03, 61.58 0.82, 65.29 423.08 80
7 12/03/2024 21:24:55 0.01, 61.51 0.32, 60.02 168.87 80
8 12/04/2024 21:03:28 0.02, 61.51 -0.64, 64.57 348.19 80
9 12/06/2024 09:25:22 -0.00, 61.59 -0.53, 59.27 263.80 80
